This is the latest recevied weather packets stored in our database for station/object AA8FM-13. If no packets are shown the sender has not sent any weather packets the latest 10 day(s).
| Time | Temp. | Humidity | Pressure | Rain* | Wind** | Luminosity | Snow |
|---|---|---|---|---|---|---|---|
| 1778100159 | 12.78° C | 93% | 1008.2 hPa | 0 mm | - | 65 W/m² | - |
| 1778099857 | 12.78° C | 93% | 1008 hPa | 0 mm | - | 71 W/m² | - |
| 1778099554 | 12.78° C | 92% | 1007.9 hPa | 0 mm | - | 121 W/m² | - |
| 1778099251 | 12.78° C | 94% | 1008 hPa | 0 mm | - | 131 W/m² | - |
| 1778098947 | 12.78° C | 94% | 1007.9 hPa | 0 mm | - | 180 W/m² | - |
| 1778098644 | 12.78° C | 94% | 1007.9 hPa | 0 mm | - | 98 W/m² | - |
| 1778098341 | 12.78° C | 94% | 1008 hPa | 0 mm | - | 84 W/m² | - |
| 1778098037 | 12.78° C | 95% | 1008.1 hPa | 0 mm | - | 176 W/m² | - |
| 1778097729 | 12.78° C | 95% | 1007.8 hPa | 0 mm | - | 146 W/m² | - |
| 1778097425 | 12.78° C | 95% | 1008 hPa | 0 mm | - | 60 W/m² | - |
| 1778097121 | 12.78° C | 96% | 1007.8 hPa | 0 mm | - | 54 W/m² | - |
| 1778096813 | 12.78° C | 96% | 1007.6 hPa | 0 mm | - | 83 W/m² | - |
| 1778096509 | 12.78° C | 96% | 1007.8 hPa | 0 mm | - | 51 W/m² | - |
| 1778096207 | 12.78° C | 96% | 1007.7 hPa | 0 mm | - | 49 W/m² | - |
| 1778095904 | 12.78° C | 97% | 1007.7 hPa | 0 mm | - | 78 W/m² | - |
| 1778095601 | 12.78° C | 97% | 1007.7 hPa | 0 mm | - | 83 W/m² | - |
| 1778095297 | 12.78° C | 98% | 1007.8 hPa | 0 mm | - | 72 W/m² | - |
| 1778094994 | 12.78° C | 98% | 1007.8 hPa | 0 mm | - | 63 W/m² | - |
| 1778094690 | 12.78° C | 99% | 1007.7 hPa | 0 mm | - | 59 W/m² | - |
| 1778094387 | 12.78° C | 99% | 1007.6 hPa | 0 mm | - | 82 W/m² | - |
| 1778094084 | 12.78° C | 99% | 1007.4 hPa | 0 mm | - | 79 W/m² | - |
| 1778093781 | 12.78° C | 99% | 1007.5 hPa | 0 mm | - | 60 W/m² | - |
| 1778093477 | 12.78° C | 99% | 1007.6 hPa | 0 mm | - | 52 W/m² | - |
| 1778093175 | 12.78° C | 99% | 1007.5 hPa | 0 mm | - | 55 W/m² | - |
| 1778092872 | 13.33° C | 99% | 1007.5 hPa | 0 mm | - | 37 W/m² | - |
* Rain latest hour (hover to see other rain measurements)
** Current wind speed in m/s (hover to see current wind gust speed)